Torna al catalogo

NOAA 16 DEB

AttivoSSO
NORAD 41143·DEBRIS·🇺🇸 United States

Lanciato Sep 21, 2000 da Vandenberg Space Force Base

Loading…

Prossimi Passaggi (prossime 24 ore)

TLE

AggiornatoSource: Space-Track

Epoca: Sep 13, 2026, 04:05 UTC

1 41143U 00055CA  26256.17044706  .00001885  00000-0  11123-2 0  9995
2 41143  98.8860 219.6434 0083113 241.8322 117.4433 14.07359054549336

Traccia NOAA 16 DEB in tempo reale con AllMySat

Download on the App Store